GW1261 Weather Reports


Display with metric or nautical units.
time (UTC)temp
F
wind
direction
speed
MPH
gust
MPH
rain 1hr
in
rain 24hr
in
rain mn
in
humidity
%
barometer
mb
20260901041851 86 177 0.0 1.0 0.00 0.00 0.00 85 976.0
20260901041345 86 168 0.0 1.0 0.00 0.00 0.00 84 976.2
20260901040839 86 180 0.0 0.0 0.00 0.00 0.00 86 976.0
20260901040339 85 201 0.0 0.0 0.00 0.00 0.00 88 976.2
20260901035839 84 182 0.0 0.0 0.00 0.00 0.00 89 976.2
20260901035337 84 181 0.0 0.0 0.00 0.00 0.00 88 976.2
20260901034836 84 202 0.0 0.0 0.00 0.00 0.00 88 976.2
20260901034331 84 202 0.0 0.0 0.00 0.00 0.00 88 976.3
20260901033831 84 202 0.0 0.0 0.00 0.00 0.00 86 976.4
20260901033330 85 184 0.0 0.0 0.00 0.00 0.00 88 976.2
20260901032829 85 184 0.0 0.0 0.00 0.00 0.00 89 976.3
20260901032328 85 184 0.0 0.0 0.00 0.00 0.00 88 976.3
20260901031824 84 184 0.0 0.0 0.00 0.00 0.00 89 976.3
20260901031320 84 180 0.0 0.0 0.00 0.00 0.00 89 976.1
20260901030819 83 177 0.0 0.0 0.00 0.00 0.00 89 976.4
20260901030315 83 176 0.0 0.0 0.00 0.00 0.00 91 976.3
20260901025814 83 164 0.0 0.0 0.00 0.00 0.00 91 976.4
20260901025309 82 203 0.0 0.0 0.00 0.00 0.00 91 976.3
20260901024804 82 194 0.0 1.0 0.00 0.00 0.00 92 976.3
20260901024303 82 202 0.0 0.0 0.00 0.00 0.00 94 976.4
20260901023801 81 202 0.0 0.0 0.00 0.00 0.00 94 976.4
20260901023256 81 200 0.0 0.0 0.00 0.00 0.00 95 976.6
20260901022751 80 184 0.0 0.0 0.00 0.00 0.00 96 976.4
20260901022247 80 191 0.0 0.0 0.00 0.00 0.00 95 976.3
20260901021742 80 190 0.0 0.0 0.00 0.00 0.00 96 976.3
20260901021238 80 196 0.0 0.0 0.00 0.00 0.00 97 976.4
20260901020733 80 196 0.0 0.0 0.00 0.00 0.00 97 976.3
20260901020228 80 196 0.0 0.0 0.00 0.00 0.00 97 976.3
20260901015723 80 196 0.0 0.0 0.00 0.00 0.00 97 976.3
20260901015218 80 196 0.0 0.0 0.00 0.00 0.00 97 976.2
20260901014713 80 196 0.0 0.0 0.00 0.00 0.00 95 976.1
20260901014209 80 196 0.0 0.0 0.00 0.00 0.00 97 976.1
20260901013704 80 196 0.0 0.0 0.00 0.00 0.00 98 976.4
20260901013200 80 196 0.0 0.0 0.00 0.00 0.00 97 976.1
20260901012655 80 196 0.0 0.0 0.00 0.00 0.00 99 976.0
20260901012149 80 196 0.0 0.0 0.00 0.00 0.00 99 976.0
20260901011646 80 196 0.0 0.0 0.00 0.00 0.00 99 975.9
20260901011144 80 196 0.0 0.0 0.00 0.00 0.00 99 975.9
20260901010640 79 196 0.0 0.0 0.00 0.00 0.00 99 975.9
20260901010139 79 196 0.0 0.0 0.00 0.00 0.00 99 975.7
20260901005638 78 196 0.0 0.0 0.00 0.00 0.00 99 975.7
20260901005134 78 196 0.0 0.0 0.00 0.00 0.00 99 975.7
20260901004633 77 196 0.0 0.0 0.00 0.00 0.00 99 975.7
20260901004128 77 203 0.0 0.0 0.00 0.00 0.00 99 975.7
20260901003623 77 195 0.0 0.0 0.00 0.00 0.00 99 975.7
20260901003121 77 194 0.0 0.0 0.00 0.00 0.00 99 975.5
20260901002616 76 195 0.0 0.0 0.00 0.00 0.00 99 975.6
20260901002110 76 195 0.0 0.0 0.00 0.00 0.00 99 975.5
20260901001600 76 195 0.0 0.0 0.00 0.00 0.00 99 975.5
20260901001055 76 196 0.0 0.0 0.00 0.00 0.00 99 975.6
20260901000549 76 196 0.0 0.0 0.00 0.00 0.00 99 975.5
20260901000045 75 196 0.0 0.0 0.00 0.00 0.00 99 975.4
20260831235538 75 196 0.0 0.0 0.00 0.00 0.00 99 975.5
20260831235034 75 196 0.0 0.0 0.00 0.00 0.00 99 975.3
20260831234528 75 196 0.0 0.0 0.00 0.00 0.00 99 975.3
20260831234025 75 196 0.0 0.0 0.00 0.00 0.00 99 975.0
20260831233519 75 196 0.0 0.0 0.00 0.00 0.00 99 975.3
20260831233015 75 196 0.0 0.0 0.00 0.00 0.00 99 975.4
20260831232510 75 196 0.0 0.0 0.00 0.00 0.00 99 975.2
20260831232006 75 196 0.0 0.0 0.00 0.00 0.00 99 975.1
20260831231502 75 196 0.0 0.0 0.00 0.00 0.00 99 975.0
20260831230957 75 196 0.0 0.0 0.00 0.00 0.00 99 975.1
20260831230453 75 196 0.0 0.0 0.00 0.00 0.00 99 975.2
20260831225947 75 196 0.0 0.0 0.00 0.00 0.00 99 975.0
20260831225443 75 196 0.0 0.0 0.00 0.00 0.00 99 975.0
20260831224938 75 196 0.0 0.0 0.00 0.00 0.00 99 975.0
20260831224437 76 196 0.0 0.0 0.00 0.00 0.00 99 975.1
20260831223932 76 196 0.0 0.0 0.00 0.00 0.00 99 975.1
20260831223428 76 196 0.0 0.0 0.00 0.00 0.00 99 974.8
20260831222925 76 196 0.0 0.0 0.00 0.00 0.00 99 974.7
20260831222420 76 196 0.0 0.0 0.00 0.00 0.00 99 974.8
20260831221914 76 196 0.0 0.0 0.00 0.00 0.00 99 974.6
20260831221411 76 196 0.0 0.0 0.00 0.00 0.00 99 975.0
20260831220905 76 196 0.0 0.0 0.00 0.00 0.00 99 974.8
20260831220355 76 196 0.0 0.0 0.00 0.00 0.00 99 974.7
20260831215850 76 196 0.0 0.0 0.00 0.00 0.00 99 974.9
20260831215346 76 196 0.0 0.0 0.00 0.00 0.00 99 974.6
20260831214842 76 196 0.0 0.0 0.00 0.00 0.00 99 974.6
20260831214339 76 196 0.0 0.0 0.00 0.00 0.00 99 974.7
20260831213834 76 196 0.0 0.0 0.00 0.00 0.00 99 974.8
20260831213331 76 196 0.0 0.0 0.00 0.00 0.00 99 974.7
20260831212826 76 196 0.0 0.0 0.00 0.00 0.00 99 974.7
20260831212322 76 196 0.0 0.0 0.00 0.00 0.00 99 974.7
20260831211821 76 196 0.0 0.0 0.00 0.00 0.00 99 974.7
20260831211316 76 196 0.0 0.0 0.00 0.00 0.00 99 974.6
20260831210815 76 196 0.0 0.0 0.00 0.00 0.00 99 974.5
20260831210312 76 196 0.0 0.0 0.00 0.00 0.00 99 974.3
20260831205811 76 196 0.0 0.0 0.00 0.00 0.00 99 974.6
20260831205308 76 196 0.0 0.0 0.00 0.00 0.00 99 974.5
20260831204802 76 196 0.0 0.0 0.00 0.00 0.00 99 974.5
20260831204301 76 192 0.0 0.0 0.00 0.00 0.00 99 974.7
20260831203801 77 196 0.0 0.0 0.00 0.00 0.00 99 974.4
20260831203255 77 195 0.0 0.0 0.00 0.00 0.00 99 974.4
20260831202753 77 196 0.0 0.0 0.00 0.00 0.00 99 974.6
20260831202248 77 196 0.0 0.0 0.00 0.00 0.00 99 974.5
20260831201743 77 196 0.0 0.0 0.00 0.00 0.00 99 974.7
20260831201242 77 196 0.0 0.0 0.00 0.00 0.00 99 974.7
20260831200738 77 196 0.0 0.0 0.00 0.00 0.00 99 974.5
20260831200232 77 196 0.0 0.0 0.00 0.00 0.00 99 974.5
20260831195728 77 196 0.0 0.0 0.00 0.00 0.00 99 974.5
20260831195224 77 196 0.0 0.0 0.00 0.00 0.00 99 974.7
20260831194718 77 196 0.0 0.0 0.00 0.00 0.00 99 974.8
20260831194214 77 196 0.0 0.0 0.00 0.00 0.00 99 974.9
20260831193707 77 196 0.0 0.0 0.00 0.00 0.00 99 974.6
20260831193203 76 196 0.0 0.0 0.00 0.00 0.00 99 974.7
20260831192658 76 196 0.0 0.0 0.00 0.00 0.00 99 974.6
20260831192153 76 196 0.0 0.0 0.00 0.00 0.00 99 974.7
20260831191649 76 196 0.0 0.0 0.00 0.00 0.00 99 974.8
20260831191145 76 196 0.0 0.0 0.00 0.00 0.00 99 975.0
20260831190639 76 196 0.0 0.0 0.00 0.00 0.00 99 974.8
20260831190138 76 196 0.0 0.0 0.00 0.00 0.00 99 974.9
20260831185634 77 196 0.0 0.0 0.00 0.00 0.00 99 974.9
20260831185130 77 196 0.0 0.0 0.00 0.00 0.00 99 975.0
20260831184630 77 196 0.0 0.0 0.00 0.00 0.00 99 975.2
20260831184126 77 196 0.0 0.0 0.00 0.00 0.00 99 974.9
20260831183625 77 196 0.0 0.0 0.00 0.00 0.00 99 975.1
20260831183124 77 196 0.0 0.0 0.00 0.00 0.00 99 975.0
20260831182623 77 196 0.0 0.0 0.00 0.00 0.00 99 975.1
20260831182120 77 196 0.0 0.0 0.00 0.00 0.00 99 975.3
20260831181619 77 196 0.0 0.0 0.00 0.00 0.00 99 975.2
20260831181114 77 196 0.0 0.0 0.00 0.00 0.00 99 975.0
20260831180609 77 196 0.0 0.0 0.00 0.00 0.00 99 975.0
20260831180104 77 196 0.0 0.0 0.00 0.00 0.00 99 975.0
20260831175559 77 196 0.0 0.0 0.00 0.00 0.00 99 975.1
20260831175056 77 196 0.0 0.0 0.00 0.00 0.00 99 975.1
20260831174550 77 196 0.0 0.0 0.00 0.00 0.00 99 975.0
20260831174044 77 196 0.0 0.0 0.00 0.00 0.00 99 975.1
20260831173543 77 196 0.0 0.0 0.00 0.00 0.00 99 975.1
20260831173039 77 196 0.0 0.0 0.00 0.00 0.00 99 975.2
20260831172534 77 196 0.0 0.0 0.00 0.00 0.00 99 975.1
20260831172029 77 176 0.0 0.0 0.00 0.00 0.00 99 975.2
20260831171524 77 176 0.0 0.0 0.00 0.00 0.00 99 975.1
20260831171021 77 176 0.0 0.0 0.00 0.00 0.00 99 975.2
20260831170517 77 176 0.0 0.0 0.00 0.00 0.00 99 975.3
20260831170015 77 186 0.0 0.0 0.00 0.00 0.00 99 975.2
20260831165514 77 175 0.0 0.0 0.00 0.00 0.00 99 975.3
20260831165012 77 188 0.0 0.0 0.00 0.00 0.00 99 975.4
20260831164507 77 188 0.0 0.0 0.00 0.00 0.00 99 975.1
20260831164002 77 196 0.0 0.0 0.00 0.00 0.00 99 975.2
20260831163457 77 203 0.0 0.0 0.00 0.00 0.00 99 975.2
20260831162956 77 179 0.0 0.0 0.00 0.00 0.00 99 975.1
20260831162452 77 203 0.0 0.0 0.00 0.00 0.00 99 975.2
20260831161949 77 201 0.0 0.0 0.00 0.00 0.00 99 975.2
20260831161446 77 196 0.0 0.0 0.00 0.00 0.00 99 975.2
20260831160942 77 196 0.0 0.0 0.00 0.00 0.00 99 975.3
20260831160441 77 196 0.0 0.0 0.00 0.00 0.00 99 975.3
20260831155936 77 196 0.0 0.0 0.00 0.00 0.00 99 975.2
20260831155431 77 196 0.0 0.0 0.00 0.00 0.00 99 975.4
20260831154927 77 196 0.0 0.0 0.00 0.00 0.00 99 975.4
20260831154423 77 196 0.0 0.0 0.00 0.00 0.00 99 975.3
20260831153921 77 196 0.0 0.0 0.00 0.00 0.00 99 975.6
20260831153417 77 196 0.0 0.0 0.00 0.00 0.00 99 975.3
20260831152913 77 195 0.0 0.0 0.00 0.00 0.00 99 975.4
20260831152409 77 196 0.0 0.0 0.00 0.00 0.00 99 975.5
20260831151904 77 196 0.0 0.0 0.00 0.00 0.00 99 975.2
20260831151402 77 195 0.0 0.0 0.00 0.00 0.00 99 975.2
20260831150858 77 196 0.0 0.0 0.00 0.00 0.00 99 975.2
20260831150353 77 196 0.0 0.0 0.00 0.00 0.00 99 975.1
20260831145852 77 195 0.0 0.0 0.00 0.00 0.00 99 975.1
20260831145349 77 196 0.0 0.0 0.00 0.00 0.00 99 975.1
20260831144844 77 193 0.0 0.0 0.00 0.00 0.00 99 974.8
20260831144340 77 195 0.0 0.0 0.00 0.00 0.00 99 974.7
20260831143835 77 195 0.0 0.0 0.00 0.00 0.00 99 974.5
20260831143330 77 195 0.0 0.0 0.00 0.00 0.00 99 974.4
20260831142825 77 195 0.0 0.0 0.00 0.00 0.00 99 974.4
20260831142321 77 175 0.0 0.0 0.00 0.00 0.00 99 974.4
20260831141820 78 184 0.0 0.0 0.00 0.00 0.00 99 974.4
20260831141315 78 192 0.0 0.0 0.00 0.00 0.00 99 974.3
20260831140810 78 171 0.0 0.0 0.00 0.00 0.00 99 974.0
20260831140304 78 180 0.0 0.0 0.00 0.00 0.00 99 974.2
20260831135802 78 172 0.0 0.0 0.00 0.00 0.00 99 974.1
20260831135258 78 171 0.0 0.0 0.00 0.00 0.00 99 973.9
20260831134753 77 192 0.0 0.0 0.00 0.00 0.00 99 973.9
20260831134250 77 192 0.0 0.0 0.00 0.00 0.00 99 973.6
20260831133749 77 192 0.0 0.0 0.00 0.00 0.00 99 973.8
20260831133249 78 195 0.0 0.0 0.00 0.00 0.00 99 973.6
20260831132744 78 195 0.0 0.0 0.00 0.00 0.00 99 973.6
20260831132239 78 196 0.0 0.0 0.00 0.00 0.00 99 973.6
20260831131738 78 196 0.0 0.0 0.00 0.00 0.00 99 973.6
20260831131235 78 196 0.0 0.0 0.00 0.00 0.00 99 973.5
20260831130730 78 196 0.0 0.0 0.00 0.00 0.00 99 973.7
20260831130225 78 196 0.0 0.0 0.00 0.00 0.00 99 973.4
20260831125723 78 196 0.0 0.0 0.00 0.00 0.00 99 973.6
20260831125220 78 196 0.0 0.0 0.00 0.00 0.00 99 973.5
20260831124714 78 196 0.0 0.0 0.00 0.00 0.00 99 973.4
20260831124211 78 195 0.0 0.0 0.00 0.00 0.00 99 973.3
20260831123710 78 170 0.0 0.0 0.00 0.00 0.00 99 973.4
20260831123209 78 181 0.0 0.0 0.00 0.00 0.00 99 973.0
20260831122704 79 186 0.0 0.0 0.00 0.00 0.00 99 973.0
20260831122200 79 186 0.0 0.0 0.00 0.00 0.00 99 973.0
20260831121659 79 186 0.0 0.0 0.00 0.00 0.00 99 972.9
20260831121155 79 182 0.0 0.0 0.00 0.00 0.00 99 973.0
20260831120650 79 164 0.0 1.0 0.00 0.00 0.00 98 972.8
20260831120145 80 164 0.0 0.0 0.00 0.00 0.00 98 972.6
20260831115641 80 164 0.0 0.0 0.00 0.00 0.00 97 972.5
20260831115137 80 150 0.0 3.0 0.00 0.00 0.00 96 972.4
20260831114636 80 155 1.0 1.0 0.00 0.00 0.00 96 972.4
20260831114131 80 137 0.0 1.0 0.00 0.00 0.00 96 972.4
20260831113630 81 76 1.0 2.0 0.00 0.00 0.00 95 972.3
20260831113126 82 79 1.0 2.0 0.00 0.00 0.00 93 972.3
20260831112625 82 154 0.0 1.0 0.00 0.00 0.00 90 972.2
20260831112120 82 117 0.0 1.0 0.00 0.00 0.00 89 972.1
20260831111616 82 211 0.0 0.0 0.00 0.00 0.00 92 972.1
20260831111112 82 211 0.0 0.0 0.00 0.00 0.00 92 972.1
20260831110607 82 211 0.0 0.0 0.00 0.00 0.00 91 972.1
20260831105601 83 205 0.0 0.0 0.00 0.00 0.00 90 971.9
20260831105055 83 204 0.0 0.0 0.00 0.00 0.00 91 972.0
20260831072510 84 219 0.0 0.0 0.00 0.00 0.00 92 972.1
20260831072006 84 219 0.0 0.0 0.00 0.00 0.00 92 972.1
20260831071505 84 219 0.0 0.0 0.00 0.00 0.00 92 972.2
20260831071000 84 203 0.0 0.0 0.00 0.00 0.00 95 972.4
20260831070459 84 203 0.0 0.0 0.00 0.00 0.00 95 972.2
20260831065958 84 203 0.0 0.0 0.00 0.00 0.00 95 972.5
20260831065457 84 203 0.0 0.0 0.00 0.00 0.00 95 972.4
20260831064951 84 203 0.0 0.0 0.00 0.00 0.00 95 972.5
20260831064441 84 183 0.0 0.0 0.00 0.00 0.00 93 972.5
20260831063936 84 181 0.0 0.0 0.00 0.00 0.00 94 972.4
20260831063431 84 181 0.0 0.0 0.00 0.00 0.00 92 972.4
20260831062925 84 176 0.0 0.0 0.00 0.00 0.00 88 972.6
20260831062422 84 181 0.0 0.0 0.00 0.00 0.00 94 972.6
20260831061920 84 181 0.0 0.0 0.00 0.00 0.00 93 972.7
20260831061419 84 170 0.0 0.0 0.00 0.00 0.00 93 973.0
20260831060915 84 170 0.0 0.0 0.00 0.00 0.00 94 973.1
20260831060410 84 170 0.0 0.0 0.00 0.00 0.00 91 972.8
20260831055909 84 161 0.0 0.0 0.00 0.00 0.00 91 973.1
20260831055404 84 154 0.0 1.0 0.00 0.00 0.00 91 973.2
20260831054900 83 180 0.0 0.0 0.00 0.00 0.00 95 973.2
20260831054355 82 180 0.0 0.0 0.00 0.00 0.00 96 973.4
20260831053854 83 180 0.0 0.0 0.00 0.00 0.00 98 973.2
20260831053352 83 181 0.0 0.0 0.00 0.00 0.00 99 973.5
20260831052847 83 84 0.0 0.0 0.00 0.00 0.00 95 973.5
20260831052346 82 210 0.0 0.0 0.00 0.00 0.00 99 973.4
20260831051845 82 195 0.0 0.0 0.00 0.00 0.00 99 973.8
20260831051343 81 216 0.0 0.0 0.00 0.00 0.00 99 973.9
20260831050838 80 217 0.0 0.0 0.00 0.00 0.00 99 973.7
20260831050337 79 173 0.0 0.0 0.00 0.00 0.00 99 973.8
20260831045832 79 177 0.0 0.0 0.00 0.00 0.00 99 974.0
20260831045326 79 177 0.0 0.0 0.00 0.00 0.00 99 973.9
20260831044821 79 177 0.0 0.0 0.00 0.00 0.00 99 974.0
20260831044316 79 193 0.0 0.0 0.00 0.00 0.00 99 974.0
20260831043812 77 177 0.0 0.0 0.00 0.00 0.00 99 974.1
20260831043311 77 177 0.0 0.0 0.00 0.00 0.00 99 974.2
20260831042806 77 177 0.0 0.0 0.00 0.00 0.00 99 974.0
20260831042300 77 177 0.0 0.0 0.00 0.00 0.00 99 974.2